[[{"header":{"parameterUnit":"m.s-1","parameterCategory":1,"la1":30.2992,"la2":30.254,"lo1":-89.0895,"lo2":-89.0443,"dy":0.0025,"dx":0.0025,"nx":19,"ny":19,"refTime":"2026-03-22T03:00:00:Z","depth":0,"parameterNumber":2,"parameterNumberName":"U-component_of_WINDS"},"data":[0,0,0,3.1205,3.1209,3.139,3.139,3.1626,3.1628,0,0,0,0,0,0,0,0,0,0,0,3.115,3.1152,3.1205,3.1209,3.139,3.139,3.1625,3.1628,0,0,0,0,0,0,0,0,0,0,0,3.1149,3.1151,3.1153,3.121,3.1389,3.1391,3.1625,3.1488,0,0,0,0,0,0,0,0,0,0,3.1312,3.1259,3.1151,3.1153,3.1211,3.1389,3.1391,3.1481,3.1497,3.1545,0,3.1583,0,3.1609,3.1644,3.1644,0,0,0,3.1211,3.1246,3.1296,3.1153,3.1213,3.1389,3.1309,3.149,3.1507,3.1565,3.1587,3.1595,3.1613,3.1645,3.1646,3.1912,3.1913,0,0,3.1201,3.1182,3.1284,3.1307,3.1275,3.1303,3.1314,3.15,3.1524,3.1588,3.1601,3.1617,3.1647,3.1648,3.191,3.1912,0,0,0,3.1171,3.1175,3.1221,3.1297,3.1329,3.1308,3.1321,3.1516,3.1532,3.1604,3.162,3.1648,3.1651,3.1909,3.1911,3.195,0,0,0,3.1165,3.1158,3.1216,3.1207,3.1326,3.1424,3.1333,3.1519,3.1541,3.1619,3.1648,3.1653,3.1908,3.191,3.1946,3.1972,0,0,0,3.1139,3.1155,3.118,3.1205,3.1282,3.1421,3.1448,3.1524,3.1551,3.1645,3.1654,3.1907,3.191,3.1943,3.1967,3.2039,0,0,0,3.1106,3.1211,3.118,3.1305,3.128,3.1443,3.1447,3.157,3.1655,3.1649,3.1908,3.1911,3.1942,3.1963,3.2035,3.2097,3.2121,0,0,3.1229,3.1225,3.1301,3.1278,3.1442,3.1417,3.1588,3.1684,3.1711,3.1844,3.1851,3.1948,3.1967,3.2038,3.2255,3.2274,0,0,0,3.1334,3.1388,3.1435,3.1514,3.159,3.1658,3.173,3.1767,3.1881,3.1774,3.1993,3.2005,3.2048,3.2079,3.2094,3.2134,3.1923,3.1923,3.1923,3.1481,3.151,3.1638,3.169,3.1767,3.1842,3.1909,3.1972,3.1977,3.2029,3.2069,3.2197,3.2232,3.2244,3.2285,3.2103,3.2103,3.2103,3.2103,3.1666,3.1748,3.1756,3.1882,3.1915,3.2023,3.2101,3.2103,3.2211,3.2168,3.2208,3.216,3.2263,3.2301,3.2107,3.2106,3.2106,3.2105,3.2105,3.1767,3.1812,3.1854,3.1975,3.2066,3.2116,3.222,3.2245,3.227,3.2309,3.2356,3.2356,3.2361,3.2329,3.233,3.233,3.2331,3.2331,3.2331,3.1855,3.1902,3.1985,3.2077,3.2134,3.2212,3.2292,3.235,3.2421,3.2431,3.2432,3.2436,3.2267,3.2225,3.2338,3.2337,3.2336,3.2336,3.2335,3.2035,3.1999,3.2128,3.2185,3.2298,3.2389,3.242,3.2537,3.2589,3.2641,3.2637,3.2507,3.2506,3.2494,3.246,3.2628,3.2628,3.2628,3.2628,3.2122,3.2124,3.2263,3.2354,3.2445,3.2488,3.2638,3.2704,3.2765,3.2801,3.278,3.2737,3.2723,3.2731,3.2713,3.2682,3.2902,3.2903,3.2903,3.2236,3.2249,3.2369,3.2427,3.2519,3.2598,3.2742,3.285,3.2912,3.2915,3.283,3.2818,3.2748,3.2723,3.2723,3.2696,3.2639,0,0]},{"header":{"parameterUnit":"m.s-1","parameterCategory":1,"la1":30.2992,"la2":30.254,"lo1":-89.0895,"lo2":-89.0443,"dy":0.0025,"dx":0.0025,"nx":19,"ny":19,"refTime":"2026-03-22T03:00:00:Z","depth":0,"parameterNumber":3,"parameterNumberName":"V-component_of_WINDS"},"data":[0,0,0,-0.9784,-0.9784,-0.9825,-0.9825,-0.9856,-0.9856,0,0,0,0,0,0,0,0,0,0,0,-0.9759,-0.9759,-0.9784,-0.9785,-0.9825,-0.9825,-0.9856,-0.9856,0,0,0,0,0,0,0,0,0,0,0,-0.9759,-0.9759,-0.9759,-0.9785,-0.9825,-0.9825,-0.9856,-0.9833,0,0,0,0,0,0,0,0,0,0,-0.9797,-0.9761,-0.9759,-0.9759,-0.9785,-0.9825,-0.9825,-0.9832,-0.9834,-0.9829,0,-0.982,0,-0.9839,-0.9857,-0.9857,0,0,0,-0.9794,-0.9759,-0.9782,-0.9758,-0.9785,-0.9824,-0.9809,-0.9834,-0.9836,-0.9832,-0.9821,-0.9823,-0.9839,-0.9857,-0.9857,-0.9796,-0.9796,0,0,-0.9792,-0.9759,-0.978,-0.9783,-0.9776,-0.9808,-0.981,-0.9835,-0.9821,-0.9821,-0.9824,-0.984,-0.9857,-0.9857,-0.9797,-0.9796,0,0,0,-0.9779,-0.9757,-0.978,-0.9781,-0.979,-0.9809,-0.9812,-0.982,-0.9831,-0.9824,-0.984,-0.9857,-0.9857,-0.9798,-0.9797,-0.973,0,0,0,-0.9778,-0.975,-0.9778,-0.9758,-0.9789,-0.9806,-0.9795,-0.9829,-0.9833,-0.984,-0.9857,-0.9857,-0.9799,-0.9797,-0.9734,-0.9703,0,0,0,-0.9761,-0.9748,-0.9749,-0.9757,-0.9773,-0.9806,-0.9818,-0.983,-0.9842,-0.9857,-0.9857,-0.9799,-0.9798,-0.9737,-0.9709,-0.9679,0,0,0,-0.9732,-0.9687,-0.9747,-0.9704,-0.9772,-0.9765,-0.9818,-0.9814,-0.9819,-0.9857,-0.9799,-0.9797,-0.9738,-0.9712,-0.9683,-0.9648,-0.9631,0,0,-0.9657,-0.9677,-0.9654,-0.9709,-0.9682,-0.9761,-0.9725,-0.976,-0.9791,-0.9793,-0.9792,-0.9733,-0.9709,-0.968,-0.9546,-0.9532,0,0,0,-0.9619,-0.9602,-0.9602,-0.9606,-0.9633,-0.9654,-0.9699,-0.9713,-0.9717,-0.9785,-0.9715,-0.9702,-0.9686,-0.9672,-0.966,-0.9649,-0.9789,-0.9789,-0.9789,-0.9462,-0.9507,-0.9473,-0.9523,-0.9527,-0.9576,-0.9583,-0.961,-0.9651,-0.9635,-0.9635,-0.9548,-0.953,-0.9521,-0.951,-0.9621,-0.9621,-0.962,-0.962,-0.9356,-0.934,-0.9401,-0.9389,-0.9437,-0.9428,-0.9475,-0.9505,-0.9505,-0.9551,-0.9539,-0.9585,-0.9505,-0.9497,-0.9616,-0.9616,-0.9617,-0.9617,-0.9618,-0.9258,-0.9259,-0.9278,-0.9292,-0.9298,-0.9351,-0.9349,-0.9393,-0.9433,-0.9422,-0.9429,-0.943,-0.9437,-0.9422,-0.9422,-0.9422,-0.9422,-0.9421,-0.9421,-0.9149,-0.9174,-0.9167,-0.9195,-0.9206,-0.9226,-0.9278,-0.929,-0.9314,-0.9346,-0.9346,-0.939,-0.9489,-0.9512,-0.9417,-0.9417,-0.9418,-0.9418,-0.9419,-0.9024,-0.9061,-0.9049,-0.906,-0.91,-0.9105,-0.9162,-0.9184,-0.92,-0.9198,-0.9247,-0.9312,-0.9335,-0.9345,-0.9365,-0.9236,-0.9236,-0.9236,-0.9236,-0.8941,-0.8959,-0.896,-0.8975,-0.8996,-0.9048,-0.9036,-0.9078,-0.9126,-0.9139,-0.9165,-0.9196,-0.9204,-0.9222,-0.9234,-0.9254,-0.91,-0.91,-0.91,-0.8868,-0.889,-0.887,-0.892,-0.8956,-0.8985,-0.8977,-0.8993,-0.9055,-0.9095,-0.9151,-0.9157,-0.9207,-0.9221,-0.9259,-0.9277,-0.9314,0,0]}]]